{"data":{"norad_id":48292,"epoch":"2026-05-25T02:06:22.133952Z","epoch_age_seconds":67619,"freshness":"FRESH","line1":"1 48292U 21036S   26145.08775618  .00000396  00000+0  24521-4 0  9992","line2":"2 48292  53.1610  79.9212 0001112  88.2249 271.8880 15.31698562280113","mean_motion":15.31698562,"eccentricity":0.0001112,"inclination_deg":53.161,"raan_deg":79.9212,"arg_perigee_deg":88.2249,"mean_anomaly_deg":271.888,"bstar":2.4521e-5,"rev_number":28011,"period_min":94.01327622321,"perigee_km":469.98268623363,"apogee_km":471.50587743071,"semimajor_km":6848.8812818322,"source":"CELESTRAK","updated_at":"2026-05-25T13:38:16.674696Z"}}